Regional Weather Roundup
Issued by NWS Mobile, AL

Home | Current Version | Previous Version | Text Only | Print | Product List | Glossary On
Versions: 1 2 3 4 5 6 7 8 9 10 11 12 13 14 15 16 17 18 19 20 21 22 23 24 25 26 27 28 29 30 31 32 33 34 35 36 37 38 39 40 41 42 43 44 45 46 47 48 49 50
000
ASUS44 KMOB 251712
RWRMOB
REGIONAL WEATHER ROUNDUP
NATIONAL WEATHER SERVICE MOBILE AL
1200 PM CDT SUN SEP 25 2016

NOTE: "FAIR" INDICATES FEW OR NO CLOUDS BELOW 12,000 FEET WITH NO
      SIGNIFICANT WEATHER AND/OR OBSTRUCTIONS TO VISIBILITY.

  * THESE STATIONS ARE PART OF THE UNIVERSITY OF SOUTH ALABAMA
    MESONET AND ARE NOT UNDER NWS OR FAA QUALITY CONTROL.

ALZ061>064-251800-
COASTAL ALABAMA

CITY           SKY/WX    TMP DP  RH WIND       PRES   REMARKS
MOBILE REG APT MOSUNNY   89  72  56 SW5       30.05S HX  96
BROOKLEY FIELD SUNNY     88  74  63 SE6       30.05S HX  96
USA CAMPUS*    NOT AVBL
DOG RIVER*     NOT AVBL


CITY           SKY/WX    TMP DP  RH WIND       PRES   REMARKS
MOUNT VERNON*  NOT AVBL
SARALAND*      NOT AVBL
BAY MINETTE*   NOT AVBL
LOXLEY*        NOT AVBL
ROBERTSDALE*   NOT AVBL
FAIRHOPE*      NOT AVBL
ELBERTA*       NOT AVBL
FOLEY*         NOT AVBL
GRAND BAY*     NOT AVBL
DAUPHIN ISLND* NOT AVBL
BON SCOUR NWR* NOT AVBL
GULF SHORES    SUNNY     89  74  60 NW3       30.03S HX  97

$$

ALZ051>060-251800-
INTERIOR SOUTHWEST AND SOUTH CENTRAL ALABAMA

CITY           SKY/WX    TMP DP  RH WIND       PRES   REMARKS
GREENVILLE     NOT AVBL
EVERGREEN      SUNNY     91  71  51 CALM      30.04S HX  97
CASTLEBERRY*   NOT AVBL
ATMORE*        NOT AVBL
DIXIE*         NOT AVBL
ANDALUSIA/OPP  SUNNY     97  68  38 CALM      30.03F HX 102
ANDALUSIA*     NOT AVBL
FLORALA APT    NOT AVBL
FLORALA*       NOT AVBL

$$

FLZ001>006-251800-
WESTERN FLORIDA PANHANDLE

CITY           SKY/WX    TMP DP  RH WIND       PRES   REMARKS
PENSACOLA      SUNNY     91  70  49 NE5       30.03R HX  96
NAS PENSACOLA  MOSUNNY   88  74  63 S8        30.02S HX  96
MILTON         SUNNY     90  71  53 W5        30.03S HX  96
WHTNG S FIELD  SUNNY     94  69  44 VRB3      30.03S HX  99


CITY           SKY/WX    TMP DP  RH WIND       PRES   REMARKS
WALNUT HILL*   NOT AVBL
JAY*           NOT AVBL
DUKE FIELD     MOSUNNY   93  66  40 E5        30.02S HX  96
CRESTVIEW      SUNNY     93  66  40 VRB6      30.04S HX  96
VALPARAISO     MOSUNNY   90  71  54 SE6       30.02F HX  96
DESTIN         SUNNY     93  70  46 NE7       30.02F HX  99

$$

MSZ076-079-251800-
INTERIOR SOUTHEAST MISSISSIPPI

CITY           SKY/WX    TMP DP  RH WIND       PRES   REMARKS
LEAKESVILLE*   NOT AVBL
AGRICOLA*      NOT AVBL

$$

MARINE OBSERVATIONS

STATION/POSITION TIME  TEMP    WIND        PRES    WAVE
                       AIR SEA DIR/SP/G            HT/PER
                 (UTC) (F)     (DEG/KT/KT) (MB)    (FT/S)
PASCAGOULA       1600   87      60/  1/  2 1017.2F
PETIT BOIS ISLND 1600   82     230/  6/  7 1018.3F
GRAND BAY        1545   84     190/  5     1018.0S
KATRINA CUT      1600   83     250/  8     1018.0F
CEDAR POINT      1600   82     260/  8     1017.3F
E DAUPHIN ISLAND 1600   84     250/  7/  9 1017.0F
MIDDLE BAY LIGHT 1600   83     210/  2     1016.9F
USCG MOBILE BAY  1600   87 86  330/  2/  6 1017.7F
STATE DOCKS      1600   92                 1017.1F
MEAHER PARK      1600   83     210/  3     1017.3R
WEEKS BAY        1500   86                   N/A
FORT MORGAN      1600   82     280/  8/ 10 1016.8F
12 S ORANGE BCH  1650   84 86  310/  8/ 10 1017.1R   1/ 3
PENSACOLA BAY    1600   86 86   80/  6/  8 1017.0F
64 S DAUPHIN ISL 1600   83 85   30/  4/  6 1017.1R
67 S FORT MORGAN 1630   85      30/  6     1017.6S

$$

SELECTED LOCATIONS ACROSS THE REGION

CITY           SKY/WX    TMP DP  RH WIND       PRES   REMARKS
NEW ORLEANS    MOSUNNY   88  75  65 CALM      30.05F HX  97
GULFPORT       SUNNY     91  71  51 CALM      30.03F HX  97
PASCAGOULA AP  SUNNY     91  75  59 CALM      30.04S HX 101
PASCAGOULA*    NOT AVBL
HATTIESBURG    SUNNY     90  72  55 CALM      30.05F HX  97
LAUREL         SUNNY     90  70  51 NW6       30.06S HX  95
MERIDIAN       SUNNY     97  66  36 CALM      30.03F HX 100
JACKSON        MOSUNNY   92  68  45 W3        30.04F HX  96
MONTGOMERY     SUNNY     94  62  34 CALM      30.04F
TROY           SUNNY     91  64  40 S5        30.05F
KINSTON*       NOT AVBL
GENEVA*        NOT AVBL
ASHFORD*       NOT AVBL
DOTHAN         MOSUNNY   91  67  44 VRB3      30.07F
PANAMA CITY    MOSUNNY   90  70  51 N5        30.01F HX  95

$$




USA.gov is the U.S. government's official web portal to all federal, state and local government web resources and services.